Regional Weather Roundup
Issued by NWS Kansas City/Pleasant Hill, MO

Home | Current Version | Previous Version | Graphics & Text | Print | Product List | Glossary Off
Versions: 1 2 3 4 5 6 7 8 9 10 11 12 13 14 15 16 17 18 19 20 21 22 23 24 25 26 27 28

000
ASUS43 KEAX 031410
RWREAX

WEATHER ROUNDUP FOR EASTERN KANSAS AND NORTHWEST MISSOURI
NATIONAL WEATHER SERVICE KANSAS CITY/PLEASANT HILL MO
900 AM CDT TUE MAY 03 2016

KSZ040-057-103>105-MOZ028-029-037-043-031500-
...KANSAS CITY METROPOLITAN AREA...

CITY           SKY/WX    TMP DP  RH WIND       PRES   REMARKS
K.C. INTL      PTSUNNY   51  46  83 W7        30.09R
K.C. DOWNTOWN  SUNNY     53  48  83 CALM      30.08S
LEES SUMMIT    SUNNY     54  46  74 W5        30.09R
OLATHE - IXD   SUNNY     54  46  74 W7        30.10R
OLATHE - OJC   SUNNY     55  44  66 NW5       30.09R
LAWRENCE       SUNNY     51  48  89 NW7       30.10R FOG

$$

MOZ001>008-011>017-020>025-030>033-038>040-044>046-053-054-031500-
...NORTHERN AND CENTRAL MISSOURI...

CITY           SKY/WX    TMP DP  RH WIND       PRES   REMARKS
ST. JOSEPH     MOSUNNY   48  47  96 CALM      30.09S
WARRENSBURG    SUNNY     50  48  93 CALM      30.09R
WHITEMAN AFB   MOSUNNY   52  51  99 VRB5      30.08R
CLINTON        SUNNY     48  48 100 CALM      30.10R
SEDALIA        SUNNY     54  49  83 N3        30.09S
WARSAW         NOT AVBL
CHILLICOTHE      N/A     50  47  89 CALM      30.09S
KIRKSVILLE     SUNNY     55  45  68 NW7       30.07R

$$

MOZ041-047>049-056>058-063>065-088>090-097-031500-
...EASTERN AND SOUTHERN MISSOURI...

CITY           SKY/WX    TMP DP  RH WIND       PRES   REMARKS
ST. LOUIS INTL MOSUNNY   57  48  72 NW7       30.05R
SPIRIT OF STL  PTSUNNY   55  49  80 NW5       30.05R
COLUMBIA       FOG       48  47  96 NW5       30.08R VSB 1/2
JEFFERSON CITY FOG       47  47 100 CALM      30.09R VSB 1/2
ROLLA          CLOUDY    50  47  89 NW3       30.06R
OSAGE BEACH    CLOUDY    48  39  71 W3        30.09R
SPRINGFIELD    MOSUNNY   51  47  86 NW6       30.09R
BRANSON        MOSUNNY   52  45  76 NW6       30.10R
JOPLIN         SUNNY     53  49  86 CALM      30.11S
WEST PLAINS    SUNNY     55  44  66 N13G18    30.08R

$$

IAZ060-094-KSZ022-034>040-054-083-096-NEZ052-066-093-031500-
...KANSAS...SOUTHEAST NEBRASKA AND IOWA...

CITY           SKY/WX    TMP DP  RH WIND       PRES   REMARKS
TOPEKA         SUNNY     52  46  80 CALM      30.10R
MANHATTAN      MOSUNNY   54  45  71 CALM      30.08S
EMPORIA        SUNNY     56  47  71 VRB3      30.09S
CHANUTE        SUNNY     56  48  74 CALM      30.11R
WICHITA        MOSUNNY   53  45  74 SW6       30.08R
OMAHA          SUNNY     53  44  71 CALM      30.07S
LINCOLN        SUNNY     53  43  68 CALM      30.09R
FALLS CITY     SUNNY     54  47  77 W6        30.08R
LAMONI         SUNNY     56  47  71 W6        30.06S
DES MOINES     MOSUNNY   57  45  64 W5        30.05S

$$





USA.gov is the U.S. government's official web portal to all federal, state and local government web resources and services.